Tracking 35334 objects as of 12-Sep-2026
HD Live streaming from Space Station
objects crossing your sky now

SL-4 R/B


SL-4 R/B is no longer on orbit


NORAD ID: 7235
Int'l Code: 1974-018B
Launch date: April 3, 1974
Source: Commonwealth of Independent States (former USSR) (CIS)
Launch site: TYURATAM MISSILE AND SPACE COMPLEX (TTMTR)
Decay date: 1974-04-09

Note: This is a ROCKET BODY
Your satellite tracking list
Your tracking list is empty




NASA's NSSDC Master Catalog

Two Line Element Set (TLE):
1 07235U 74018  B 74099.10590744  .07092403 +00000-0 +84900-4 0  9996
2 07235 051.7769 282.6759 0014072 112.4535 247.7942 16.37799591000943
Source of the keplerian elements: AFSPC